Location: Barcelona
(41.3830°N, 2.1830°E)
Time: 22:53:38
(UTC+02:00)

ISS - Pass Details

Date: 24 July 2017
Orbit: 400 x 408 km, 51.6° (Epoch: 24 July)

Event Time Altitude Azimuth Distance (km) Brightness Sun altitude
Rises 04:10:42 0° 309° (NW) 2,315 0.1 -21.5°
Reaches altitude 10° 04:12:53 10° 319° (NW) 1,455 -0.9 -21.2°
Maximum altitude 04:15:55 35° 27° (NNE) 670 -2.2 -20.9°
Drops below altitude 10° 04:18:57 10° 96° (E) 1,453 -0.7 -20.6°
Sets 04:21:08 0° 105° (ESE) 2,311 0.3 -20.4°
